Regional Weather Roundup
Issued by NWS

Home | Current Version | Previous Version | Graphics & Text | Print | Product List | Glossary On
Versions: 1 2 3 4 5 6 7 8 9 10 11 12 13 14 15 16 17 18 19 20 21 22 23 24 25 26 27 28 29 30 31 32 33 34 35 36 37 38 39 40 41 42 43 44 45 46 47 48 49 50
000
ASUS43 KDTX 180301
RWRMI
MICHIGAN HOURLY REGIONAL WEATHER ROUNDUP
NATIONAL WEATHER SERVICE DETROIT/PONTIAC MI
1100 PM EDT WED SEP 17 2014

NOTE: "FAIR" INDICATES FEW OR NO CLOUDS BELOW 12,000 FEET WITH NO
SIGNIFICANT WEATHER AND/OR OBSTRUCTION TO VISIBILITY.

MIZ047>049-052>055-059>063-066>070-074>076-081>083-180400-
SOUTHEAST LOWER MICHIGAN

CITY           SKY/WX    TMP DP  RH WIND       PRES   REMARKS
ADRIAN         CLEAR     49  46  90 CALM      30.02R
ALMA           CLEAR     46  45  95 CALM      30.02R
ANN ARBOR      CLEAR     44  43  96 W3        30.01R
BAD AXE        CLEAR     46  46  99 CALM      30.00R
CARO           CLEAR     46  46  99 CALM      30.00R FOG
DETROIT CITY   CLEAR     56  46  69 CALM      30.00R
DETROIT        PTCLDY    56  46  69 CALM      30.01R
FLINT          CLEAR     47  44  90 CALM      30.01R
GROSSE ILE     CLEAR     54  48  82 CALM      29.99S
HILLSDALE      CLEAR     46  46  99 CALM      30.02R
HOWELL         CLEAR     49  47  91 CALM      30.02R

CITY           SKY/WX    TMP DP  RH WIND       PRES   REMARKS
JACKSON        CLEAR     48  45  89 CALM      30.03R
LAMBERTVILLE   CLEAR     50  46  87 CALM      30.01R
LANSING        CLEAR     49  46  90 CALM      30.03R
LAPEER         FAIR      46  44  96 CALM      30.01R
MASON          CLEAR     47  46  96 CALM      30.02R
MONROE         CLEAR     48  46  93 CALM      29.99R
MT. CLEMENS    CLEAR     50  45  83 CALM      29.99R
PONTIAC        CLEAR     52  48  86 CALM      30.00S
PORT HOPE        N/A     53  46  77 SW6       29.97R
PORT HURON     FOG       45  45 100 CALM      30.00R VSB 1/4
TRI CITIES     CLEAR     53  47  79 W7        30.01R
TROY           CLEAR     57  45  63 CALM      30.02R
SAGINAW HB     CLEAR     54  48  82 W5        30.00R
$$
MIZ043>046-050>051-056>058-064>065-071>073-077>080-180400-
SOUTHWEST LOWER MICHIGAN

CITY           SKY/WX    TMP DP  RH WIND       PRES   REMARKS
BATTLE CREEK   CLEAR     51  47  86 CALM      30.03R
BENTON HARBOR  CLEAR     46  45  96 CALM      30.03R
BIG RAPIDS     CLEAR     46  46 100 CALM      30.01R
COLDWATER      CLEAR     49  48  95 CALM      30.02R
FREMONT        FAIR      46  46  97 CALM      30.02R
HOLLAND        CLEAR     49  46  90 CALM      30.03R
GRAND RAPIDS   CLEAR     50  45  83 W3        30.03R
IONIA          FAIR      52  46  80 W3        30.02R
KALAMAZOO      CLEAR     49  45  86 CALM      30.03R
LUDINGTON      PTCLDY    49  48  97 CALM      30.01S FOG
MARSHALL       CLEAR     46  45  93 CALM      30.02R
MOUNT PLEASANT CLEAR     48  47  95 CALM      30.01R
MUSKEGON       PTCLDY    50  46  86 SW3       30.03R
SOUTH HAVEN    CLEAR     47  46  97 CALM      30.02S
$$
MIZ016>042-180400-
NORTHERN LOWER MICHIGAN

CITY           SKY/WX    TMP DP  RH WIND       PRES   REMARKS
ALPENA         CLOUDY    53  49  86 N10       30.02R
BEAVER ISLAND  CLOUDY    47  41  80 N9        30.08R
BELLAIRE       CLOUDY    53  46  78 N5        30.04R
CADILLAC       PTCLDY    44  44 100 CALM      30.02R
CHARLEVOIX     CLOUDY    53  46  78 NE13      30.08R
FRANKFORT      PTCLDY    57  50  77 NE3       30.03R
GAYLORD        MOCLDY    50  45  83 NE8       30.03R
GRAYLING       CLEAR     49  48  97 CALM      30.03R
HARBOR SPRINGS CLOUDY    51  44  76 NE9       30.05R
HOUGHTON LAKE  CLEAR     45  43  93 CALM      30.02R
MANISTEE       PTCLDY    50  46  87 CALM      30.01S
OSCODA         CLEAR     54  50  89 N9        30.00R
PELLSTON       CLOUDY    49  44  83 N6        30.06R
ROGERS CITY    CLOUDY    49  47  92 N8        30.05R
TRAVERSE CITY  CLOUDY    56  47  71 N9        30.03R
$$
MIZ007>008-015-180400-
EASTERN UPPER MICHIGAN

CITY           SKY/WX    TMP DP  RH WIND       PRES   REMARKS
KINROSS        CLOUDY    45  41  87 NE12      30.07R
MACKINAC ISLAN MOCLDY    46  44  90 N6        30.05R
NEWBERRY       MOCLDY    42  37  84 N7        30.07S
S. S. MARIE    MOCLDY    43  36  76 N7        30.08R
$$
MIZ004>006-011>014-085-180400-
CENTRAL UPPER MICHIGAN

CITY           SKY/WX    TMP DP  RH WIND       PRES   REMARKS
MANISTIQUE     MOCLDY    40  37  89 N3        30.09R
ESCANABA       CLOUDY    45  37  76 N8        30.10R
MENOMINEE      CLOUDY    48  39  71 NE9       30.07R
SAWYER-GWINN   CLOUDY    40  35  80 N12       30.11S WCI  33
$$
MIZ001>003-009>011-084-180400-
WESTERN UPPER MICHIGAN

CITY           SKY/WX    TMP DP  RH WIND       PRES   REMARKS
IRON MOUNTAIN  CLOUDY    45  39  79 N10       30.09R
HOUGHTON       CLEAR     33  30  88 CALM      30.14R
COPPER HARBOR    N/A     43  34  70 E10       30.15R
IRONWOOD       CLOUDY    43  43 100 NE5       30.10R
$$

ABBREVIATIONS USED IN REMARKS
   TC - TEMPERATURE IN CELSIUS
  WCI - WIND CHILL INDEX
   HX - HEAT INDEX
  VSB - VISIBILITY




USA.gov is the U.S. government's official web portal to all federal, state and local government web resources and services.